[[{"header":{"parameterUnit":"m.s-1","parameterCategory":1,"la1":30.2991,"la2":30.254,"lo1":-89.0895,"lo2":-89.0444,"dy":0.0017,"dx":0.0017,"nx":28,"ny":28,"refTime":"2026-02-16T03:00:00:Z","depth":0,"parameterNumber":2,"parameterNumberName":"U-component_of_WINDS"},"data":[0,0,0,0,0,0,0,0,0,0,0,0,0,0,0,0,0,0,0,0,0,0,0,0,0,0,0,0,0,0,0,0,0,0,0,0,0,0,0,0,0,0,0,0,0,0,0,0,0,0,0,0,0,0,0,0,0,0,-1.9077,-1.9076,0,-1.9021,-1.9021,-1.902,-1.8971,-1.897,-1.897,-1.8969,-1.8911,-1.891,-1.8909,0,0,0,0,0,0,0,0,0,0,0,0,0,-1.9141,-1.914,-1.9077,-1.9076,-1.9076,-1.9022,-1.9021,-1.902,-1.8971,-1.897,-1.897,-1.8969,-1.8911,-1.891,-1.8909,0,0,0,0,0,0,0,0,0,0,0,0,0,-1.9102,-1.914,-1.9077,-1.9045,-1.9041,-1.9022,-1.9021,-1.902,-1.8971,-1.897,-1.897,-1.8969,-1.8912,-1.891,-1.8909,-1.8916,0,0,-1.8904,-1.8903,0,0,0,0,0,0,0,0,-1.9104,-1.91,-1.905,-1.9047,-1.9043,-1.9002,-1.9022,-1.8985,-1.8971,-1.8998,-1.8969,-1.8968,-1.8942,-1.8938,-1.8929,-1.8914,-1.8911,-1.8904,-1.8903,-1.8902,-1.8902,0,0,0,0,0,0,0,-1.9107,-1.9102,-1.9055,-1.905,-1.9045,-1.9033,-1.9027,-1.9015,-1.8975,-1.8995,-1.8992,-1.8986,-1.894,-1.8931,-1.8928,-1.891,-1.8904,-1.8903,-1.8902,-1.8901,-1.8899,-1.8899,0,0,0,0,0,0,-1.9115,-1.9104,-1.9057,-1.9053,-1.9072,-1.9033,-1.9025,-1.9016,-1.8975,-1.8968,-1.8987,-1.8984,-1.8934,-1.8929,-1.8925,-1.8932,-1.8902,-1.8901,-1.89,-1.8898,-1.8899,-1.89,0,0,0,0,0,0,-1.9116,-1.9111,-1.9059,-1.9078,-1.907,-1.9032,-1.9023,-1.9016,-1.9007,-1.8969,-1.8961,-1.8985,-1.8933,-1.8928,-1.8919,-1.8929,-1.89,-1.8899,-1.8897,-1.8898,-1.8899,-1.8944,0,0,0,0,0,0,-1.9118,-1.9112,-1.9114,-1.9078,-1.907,-1.9054,-1.9023,-1.9015,-1.9004,-1.9,-1.8965,-1.8958,-1.8932,-1.8922,-1.8918,-1.8926,-1.8898,-1.8896,-1.8897,-1.8899,-1.8942,-1.8947,-1.8951,0,0,0,0,0,-1.9121,-1.9129,-1.9115,-1.9109,-1.9072,-1.9055,-1.905,-1.9019,-1.9005,-1.9007,-1.8983,-1.8959,-1.8929,-1.8921,-1.8916,-1.8925,-1.8895,-1.8897,-1.8899,-1.8939,-1.8946,-1.8951,0,0,0,0,0,0,-1.9166,-1.9123,-1.9107,-1.9104,-1.9083,-1.9046,-1.9048,-1.9027,-1.901,-1.9006,-1.897,-1.8962,-1.8958,-1.894,-1.8933,-1.893,-1.8909,-1.891,-1.8941,-1.8947,-1.8952,-1.8956,-1.8896,0,0,0,0,0,-1.9175,-1.9165,-1.9129,-1.9129,-1.912,-1.9086,-1.9077,-1.9056,-1.9033,-1.9024,-1.8999,-1.8978,-1.8963,-1.8954,-1.8939,-1.8939,-1.8931,-1.8943,-1.8948,-1.8952,-1.8953,-1.8952,-1.8957,-1.8906,-1.8906,-1.8906,0,0,-1.9195,-1.917,-1.9166,-1.9137,-1.9119,-1.9109,-1.9079,-1.9069,-1.9062,-1.9022,-1.9013,-1.8995,-1.8968,-1.8964,-1.8962,-1.895,-1.8965,-1.8954,-1.8958,-1.8956,-1.8954,-1.8959,-1.8964,-1.8907,-1.8907,-1.8907,0,0,-1.9225,-1.9206,-1.9204,-1.9187,-1.916,-1.9138,-1.9138,-1.9104,-1.9091,-1.9081,-1.9051,-1.9042,-1.9018,-1.9,-1.8988,-1.9014,-1.8992,-1.901,-1.9035,-1.9035,-1.9039,-1.9042,-1.9051,-1.9055,-1.9012,-1.9012,-1.9012,0,-1.9252,-1.9237,-1.9206,-1.9199,-1.9187,-1.9153,-1.9151,-1.9135,-1.9105,-1.9097,-1.9085,-1.9055,-1.9034,-1.9026,-1.9033,-1.9024,-1.9023,-1.9013,-1.9041,-1.9044,-1.9046,-1.9054,-1.9058,-1.9014,-1.9014,-1.9014,-1.9013,0,-1.9272,-1.9261,-1.9263,-1.9236,-1.9224,-1.922,-1.9189,-1.9181,-1.9162,-1.9141,-1.9132,-1.9107,-1.9086,-1.9083,-1.9063,-1.9072,-1.9066,-1.9048,-1.9025,-1.9054,-1.9061,-1.9064,-1.9018,-1.9017,-1.9016,-1.9015,0,0,-1.9327,-1.9283,-1.9284,-1.9272,-1.924,-1.9232,-1.9226,-1.9207,-1.9201,-1.9182,-1.9176,-1.9157,-1.9141,-1.9127,-1.9106,-1.9106,-1.9128,-1.9087,-1.9086,-1.9095,-1.9136,-1.9149,-1.9153,-1.9113,-1.9114,-1.9114,-1.9138,0,-1.9351,-1.9339,-1.9313,-1.9309,-1.9299,-1.9267,-1.9263,-1.9243,-1.9224,-1.9213,-1.9191,-1.9179,-1.9158,-1.915,-1.9148,-1.9125,-1.9135,-1.9123,-1.9107,-1.9107,-1.9114,-1.9157,-1.917,-1.9194,-1.9141,-1.9141,-1.9141,0,-1.9378,-1.9361,-1.9357,-1.9328,-1.9323,-1.9319,-1.9299,-1.9289,-1.9267,-1.9253,-1.9239,-1.9215,-1.9208,-1.9188,-1.9177,-1.917,-1.9162,-1.915,-1.915,-1.9146,-1.9125,-1.9154,-1.9201,-1.9204,-1.9145,-1.9145,-1.9145,0,-1.9418,-1.9395,-1.939,-1.938,-1.9345,-1.9343,-1.9329,-1.9305,-1.9296,-1.9279,-1.9272,-1.9254,-1.9244,-1.9231,-1.9204,-1.9192,-1.9196,-1.9174,-1.9184,-1.9184,-1.9185,-1.9185,-1.923,-1.9181,-1.9181,-1.9181,-1.9181,0,-1.9448,-1.9446,-1.9407,-1.9404,-1.9402,-1.9371,-1.937,-1.9352,-1.9332,-1.9325,-1.9296,-1.929,-1.9254,-1.9244,-1.9222,-1.9217,-1.9212,-1.9201,-1.9195,-1.9203,-1.9204,-1.9196,-1.9193,-1.9182,-1.9182,-1.9182,-1.9182,0,-1.9492,-1.9465,-1.9457,-1.9426,-1.9418,-1.9418,-1.939,-1.9386,-1.9366,-1.9357,-1.9353,-1.9322,-1.9308,-1.928,-1.9258,-1.9244,-1.9243,-1.9233,-1.9251,-1.9247,-1.9258,-1.9257,-1.9299,-1.9303,-1.9253,-1.9253,-1.9254,0,-1.9512,-1.951,-1.9479,-1.9472,-1.9459,-1.9449,-1.9439,-1.9409,-1.94,-1.9376,-1.9374,-1.9359,-1.9344,-1.9324,-1.9299,-1.9283,-1.9272,-1.9288,-1.9269,-1.9277,-1.9271,-1.9271,-1.9271,-1.9291,-1.9292,-1.9293,-1.9293,0,-1.955,-1.9538,-1.9525,-1.9509,-1.9498,-1.9483,-1.9467,-1.9463,-1.943,-1.9421,-1.9408,-1.9397,-1.9376,-1.936,-1.934,-1.9325,-1.9303,-1.93,-1.9301,-1.9308,-1.9318,-1.9312,-1.9261,-1.9298,-1.9298,-1.9297,-1.9297,-1.9297,-1.9582,-1.9579,-1.9557,-1.9545,-1.953,-1.9515,-1.951,-1.949,-1.9478,-1.9459,-1.9442,-1.943,-1.9408,-1.938,-1.9366,-1.9356,-1.9345,-1.9347,-1.9347,-1.9348,-1.9351,-1.9321,-1.9352,-1.9352,-1.9352,-1.9352,-1.9352,0,-1.9619,-1.9603,-1.9592,-1.9571,-1.9561,-1.9543,-1.9524,-1.9517,-1.9507,-1.9489,-1.9476,-1.9461,-1.9446,-1.9421,-1.9404,-1.9401,-1.9391,-1.9397,-1.9397,-1.9393,-1.9362,-1.9362,-1.9406,-1.9406,-1.9406,-1.9406,-1.9406,-1.9406,-1.9636,-1.9631,-1.9616,-1.9603,-1.9588,-1.9576,-1.9567,-1.9554,-1.954,-1.9524,-1.9512,-1.9496,-1.9475,-1.9457,-1.9443,-1.9436,-1.943,-1.944,-1.943,-1.9401,-1.9396,-1.9391,-1.9391,-1.944,-1.944,-1.9462,-1.9462,-1.9463]},{"header":{"parameterUnit":"m.s-1","parameterCategory":1,"la1":30.2991,"la2":30.254,"lo1":-89.0895,"lo2":-89.0444,"dy":0.0017,"dx":0.0017,"nx":28,"ny":28,"refTime":"2026-02-16T03:00:00:Z","depth":0,"parameterNumber":3,"parameterNumberName":"V-component_of_WINDS"},"data":[0,0,0,0,0,0,0,0,0,0,0,0,0,0,0,0,0,0,0,0,0,0,0,0,0,0,0,0,0,0,0,0,0,0,0,0,0,0,0,0,0,0,0,0,0,0,0,0,0,0,0,0,0,0,0,0,0,0,1.1944,1.1944,0,1.1948,1.1948,1.1948,1.1995,1.1996,1.1997,1.1999,1.2002,1.2001,1.2,0,0,0,0,0,0,0,0,0,0,0,0,0,1.1978,1.1977,1.1944,1.1944,1.1944,1.1948,1.1948,1.1948,1.1995,1.1996,1.1998,1.1999,1.2003,1.2001,1.2,0,0,0,0,0,0,0,0,0,0,0,0,0,1.1971,1.1977,1.1944,1.1968,1.197,1.1948,1.1948,1.1948,1.1995,1.1996,1.1998,1.2,1.2003,1.2001,1.2,1.1955,0,0,1.1995,1.1995,0,0,0,0,0,0,0,0,1.1971,1.1969,1.1964,1.1966,1.1969,1.1973,1.1962,1.1951,1.1994,1.1985,1.1999,1.2001,1.1991,1.1991,1.1987,1.1955,1.1956,1.1995,1.1994,1.1994,1.1993,0,0,0,0,0,0,0,1.1971,1.1969,1.1946,1.1964,1.1967,1.1979,1.198,1.196,1.1978,1.1986,1.199,1.1989,1.1992,1.1989,1.1988,1.1956,1.1995,1.1994,1.1993,1.1992,1.1891,1.1889,0,0,0,0,0,0,1.1969,1.197,1.1945,1.1946,1.1974,1.1977,1.1978,1.197,1.1978,1.1981,1.1988,1.1992,1.199,1.199,1.1988,1.1939,1.1994,1.1992,1.1991,1.1893,1.1891,1.1889,0,0,0,0,0,0,1.1969,1.1966,1.1945,1.1959,1.1957,1.1974,1.1965,1.1969,1.1965,1.198,1.1983,1.1981,1.1992,1.199,1.1964,1.194,1.1992,1.199,1.1895,1.1892,1.189,1.1838,0,0,0,0,0,0,1.197,1.1966,1.1948,1.1958,1.1956,1.192,1.1963,1.1968,1.1963,1.1967,1.1974,1.1977,1.1993,1.1966,1.1962,1.1938,1.1989,1.1897,1.1894,1.1891,1.1842,1.1834,1.1827,0,0,0,0,0,1.1971,1.1933,1.1947,1.1944,1.1934,1.1919,1.1918,1.1937,1.196,1.1944,1.1954,1.1976,1.1943,1.1963,1.1959,1.1934,1.1899,1.1895,1.1891,1.1846,1.1836,1.1827,0,0,0,0,0,0,1.1918,1.1934,1.195,1.1914,1.1915,1.1927,1.1906,1.1926,1.192,1.1924,1.1949,1.195,1.1921,1.1925,1.1947,1.1894,1.1925,1.192,1.1892,1.1883,1.1875,1.1875,1.1988,0,0,0,0,0,1.1903,1.1889,1.1903,1.187,1.1869,1.1887,1.1881,1.1897,1.1898,1.1899,1.1907,1.1907,1.1898,1.189,1.1881,1.1843,1.1847,1.1825,1.1817,1.1811,1.1806,1.179,1.1781,1.1876,1.1876,1.1876,0,0,1.187,1.1877,1.1866,1.1859,1.1862,1.1848,1.1887,1.1869,1.1859,1.1896,1.1872,1.1878,1.1881,1.185,1.1836,1.1852,1.1781,1.1806,1.1801,1.18,1.1784,1.1776,1.1768,1.1873,1.1873,1.1874,0,0,1.1803,1.1806,1.178,1.1783,1.1786,1.1799,1.1793,1.1803,1.1808,1.1785,1.1814,1.1802,1.1783,1.1785,1.1784,1.1722,1.1743,1.1718,1.1679,1.1662,1.1655,1.1648,1.1628,1.162,1.1713,1.1713,1.1713,0,1.1762,1.1741,1.1764,1.1746,1.1743,1.1777,1.1752,1.1753,1.1753,1.1751,1.1769,1.1749,1.1753,1.1724,1.1709,1.1706,1.1701,1.1717,1.1654,1.1648,1.1642,1.1623,1.1615,1.171,1.1711,1.1711,1.1711,0,1.1691,1.1677,1.1655,1.1657,1.1652,1.1629,1.165,1.1643,1.1659,1.1671,1.1648,1.1655,1.165,1.1644,1.1659,1.1618,1.1628,1.1649,1.1682,1.163,1.1612,1.1605,1.1706,1.1707,1.1708,1.1709,0,0,1.1589,1.1607,1.1598,1.1601,1.1609,1.1599,1.1579,1.1575,1.1569,1.1569,1.1555,1.154,1.1561,1.1559,1.1576,1.1561,1.1514,1.1585,1.1586,1.1573,1.1472,1.1456,1.1447,1.1529,1.1528,1.1527,1.1472,0,1.1527,1.1495,1.1517,1.1482,1.147,1.1504,1.1488,1.1491,1.1502,1.1495,1.1507,1.1497,1.1524,1.1524,1.1511,1.1523,1.1495,1.1527,1.1517,1.1517,1.1516,1.1438,1.1421,1.1369,1.1466,1.1464,1.1464,0,1.1448,1.1447,1.1411,1.1425,1.1421,1.1406,1.1406,1.1397,1.1404,1.1413,1.1413,1.1434,1.1418,1.1449,1.1428,1.145,1.1448,1.1453,1.1452,1.1452,1.1487,1.1438,1.1352,1.1345,1.1453,1.1454,1.1454,0,1.138,1.1369,1.1347,1.1348,1.1363,1.1352,1.1358,1.1366,1.1363,1.1363,1.1362,1.136,1.1359,1.1357,1.1378,1.1399,1.1355,1.1388,1.1363,1.1363,1.1353,1.1353,1.1267,1.1349,1.1349,1.1349,1.1349,0,1.1308,1.1285,1.1317,1.1304,1.128,1.1306,1.1282,1.1292,1.1299,1.1289,1.1318,1.1308,1.1336,1.1329,1.1345,1.1327,1.1326,1.1334,1.1338,1.1332,1.1331,1.1331,1.1335,1.1347,1.1348,1.1348,1.1348,0,1.1228,1.1248,1.1227,1.1244,1.1248,1.123,1.1245,1.1234,1.1248,1.1235,1.1234,1.1255,1.1249,1.127,1.1267,1.1278,1.1252,1.1262,1.125,1.1253,1.1228,1.1231,1.114,1.113,1.1217,1.1216,1.1216,0,1.118,1.1164,1.1181,1.1177,1.1181,1.1174,1.1172,1.1198,1.1195,1.1203,1.1191,1.1188,1.1187,1.1176,1.1192,1.1191,1.1202,1.117,1.1202,1.1196,1.1203,1.1205,1.1204,1.1164,1.1162,1.1162,1.1161,0,1.1096,1.1108,1.1104,1.1105,1.1102,1.1104,1.1107,1.1102,1.113,1.1126,1.1121,1.112,1.1119,1.1116,1.1118,1.1125,1.1148,1.1151,1.1146,1.1139,1.1133,1.1138,1.1233,1.1153,1.1154,1.1154,1.1155,1.1155,1.1031,1.102,1.1031,1.1027,1.1033,1.1036,1.1028,1.1042,1.1038,1.1039,1.1055,1.1048,1.1058,1.1064,1.1069,1.1064,1.1079,1.1071,1.1069,1.1067,1.1063,1.1134,1.1065,1.1065,1.1065,1.1065,1.1066,0,1.095,1.0959,1.0955,1.0961,1.0958,1.0981,1.0987,1.0984,1.0977,1.0984,1.0984,1.0979,1.0978,1.0995,1.0995,1.0989,1.0999,1.0988,1.0989,1.0991,1.1049,1.1054,1.0979,1.0979,1.098,1.098,1.098,1.098,1.0907,1.0889,1.0903,1.0889,1.0899,1.0893,1.0895,1.0899,1.0906,1.09,1.0899,1.0911,1.0923,1.0925,1.0925,1.0931,1.093,1.0915,1.0924,1.0978,1.0986,1.0994,1.1,1.0915,1.0915,1.0867,1.0867,1.0866]}]]